Jackson Hawkins Field, MS

12:16 AM CST on December 11, 2017 (GMT -0600)
Hawkins

Weather History for KHKS - October, 2012

Change the Weather History Date:

Wednesday, October 10, 2012

  Actual Average (KJAN) Record (KJAN)
Temperature  
Mean Temperature 70 °F -  
Max Temperature 81 °F 77 °F 94 °F (1928)
Min Temperature 61 °F 51 °F 36 °F (1917)
Cooling Degree Days 6    
Growing Degree Days 20 (Base 50)    
Moisture  
Dew Point 58 °F    
Average Humidity 72    
Maximum Humidity 84    
Minimum Humidity 54    
Precipitation  
Precipitation 0.00 in - - ()
Sea Level Pressure  
Sea Level Pressure 30.13 in    
Wind  
Wind Speed 3 mph (North)    
Max Wind Speed 8 mph    
Max Gust Speed -    
Visibility 10 miles    
Events      
Averages and records for this station are not official NWS values.
T = Trace of Precipitation, MM = Missing Value Source: NWS Daily Summary

Daily Weather History Graph

Daily Weather History Graph

Search for Another Location

Airport or City:

Trip Planner

Search our weather history database for the weather conditions in past years. The results will help you decide how hot, cold, wet, or windy it might be!

Date:

Astronomy

Oct. 10, 2012 Rise Set
Actual Time 7:01 AM CDT 6:33 PM CDT
Civil Twilight 6:36 AM CDT 6:58 PM CDT
Nautical Twilight 6:08 AM CDT 7:26 PM CDT
Astronomical Twilight 5:39 AM CDT 7:54 PM CDT
Moon 1:54 AM CDT (10/10) 3:21 PM CDT (10/10)
Length of Visible Light 12h 21m
Length of Day
11h 32m
Waning Crescent, 27% of the Moon is Illuminated
Oct 10
Waning Crescent
Oct 15
New
Oct 21
First Quarter
Oct 29
Full
Nov 6
Last Quarter

Hourly Weather History & Observations

Time (CDT) Temp. Heat Index Dew Point Humidity Pressure Visibility Wind Dir Wind Speed Gust Speed Precip Events Conditions
12:53 AM 61.0 °F - 55.0 °F 81% 30.08 in 10.0 mi SSE 3.5 mph - N/A   Overcast
1:53 AM 61.0 °F - 55.0 °F 81% 30.07 in 10.0 mi SSE 3.5 mph - N/A   Overcast
2:53 AM 61.0 °F - 54.0 °F 78% 30.07 in 10.0 mi Calm Calm - N/A   Overcast
3:53 AM 61.0 °F - 55.0 °F 81% 30.07 in 10.0 mi SSE 3.5 mph - N/A   Overcast
4:53 AM 61.0 °F - 55.0 °F 81% 30.08 in 10.0 mi Calm Calm - N/A   Mostly Cloudy
5:53 AM 61.0 °F - 55.0 °F 81% 30.10 in 10.0 mi Calm Calm - N/A   Overcast
6:53 AM 62.1 °F - 57.0 °F 84% 30.12 in 10.0 mi Calm Calm - N/A   Overcast
7:53 AM 62.1 °F - 57.0 °F 84% 30.14 in 10.0 mi Calm Calm - 0.00 in   Overcast
8:53 AM 64.0 °F - 57.0 °F 78% 30.15 in 10.0 mi Calm Calm - N/A   Mostly Cloudy
9:53 AM 68.0 °F - 59.0 °F 73% 30.17 in 10.0 mi Calm Calm - N/A   Overcast
10:53 AM 70.0 °F - 60.1 °F 71% 30.18 in 10.0 mi Variable 4.6 mph - N/A   Overcast
11:53 AM 73.0 °F - 61.0 °F 66% 30.18 in 10.0 mi WNW 8.1 mph - N/A   Mostly Cloudy
12:53 PM 77.0 °F - 62.1 °F 60% 30.16 in 10.0 mi NW 8.1 mph - N/A   Clear
1:53 PM 78.1 °F - 62.1 °F 58% 30.13 in 10.0 mi WNW 5.8 mph - N/A   Clear
2:53 PM 80.1 °F 81.2 °F 62.1 °F 54% 30.11 in 10.0 mi North 6.9 mph - N/A   Mostly Cloudy
3:53 PM 79.0 °F - 61.0 °F 54% 30.11 in 10.0 mi North 3.5 mph - N/A   Scattered Clouds
4:53 PM 78.1 °F - 60.1 °F 54% 30.11 in 10.0 mi Variable 4.6 mph - N/A   Clear
5:53 PM 75.9 °F - 60.1 °F 58% 30.11 in 10.0 mi North 4.6 mph - N/A   Scattered Clouds
6:53 PM 72.0 °F - 61.0 °F 68% 30.12 in 10.0 mi Calm Calm - N/A   Clear
7:53 PM 69.1 °F - 60.1 °F 73% 30.14 in 10.0 mi Calm Calm - N/A   Clear
8:53 PM 66.0 °F - 59.0 °F 78% 30.17 in 10.0 mi Calm Calm - N/A   Clear
9:53 PM 64.9 °F - 57.9 °F 78% 30.18 in 10.0 mi NNE 3.5 mph - N/A   Clear
10:53 PM 64.0 °F - 57.9 °F 80% 30.19 in 10.0 mi Calm Calm - N/A   Clear
11:53 PM 63.0 °F - 57.9 °F 84% 30.18 in 10.0 mi NE 3.5 mph - N/A   Clear